Tracking 19176 objects as of 26-May-2018
HD Live streaming from Space Station
objects crossing your sky now

CZ-2D DEB

Track CZ-2D DEB now!
10-day predictions


NORAD ID: 43105
Int'l Code: 2018-002G
Perigee: 477.3 km
Apogee: 543.6 km
Inclination: 97.7 °
Period: 94.7 minutes
Semi major axis: 6881 km
RCS: Unknown
Launch date: January 9, 2018
Source: People's Republic of China (PRC)
Launch site: Taiyaun Space Center, China (TSC)

Note: This is SATELLITE DEBRIS
aabbcc
Your satellite tracking list
Your tracking list is empty




NASA's NSSDC Master Catalog

Two Line Element Set (TLE):
1 43105U 18002G   18145.20979162  .00001741  00000-0  79960-4 0  9997
2 43105  97.6893 225.1876 0048179 198.7409 161.2054 15.20830125 20676
Source of the keplerian elements: AFSPC